Year,Month,Day,Hour,Minute,Value (Times are PST for temperature in C)
2013,09,11,00,00,14.10
2013,09,11,00,01,14.10
2013,09,11,00,02,14.20
2013,09,11,00,03,14.20
2013,09,11,00,04,14.20
2013,09,11,00,05,14.20
2013,09,11,00,06,14.20
2013,09,11,00,07,14.10
2013,09,11,00,08,14.10
2013,09,11,00,09,14.10
2013,09,11,00,10,14.10
2013,09,11,00,11,14.10
2013,09,11,00,12,14.10
2013,09,11,00,13,14.10
2013,09,11,00,14,14.20
2013,09,11,00,15,14.20
2013,09,11,00,16,14.20
2013,09,11,00,17,14.20
2013,09,11,00,18,14.20
2013,09,11,00,19,14.20
2013,09,11,00,20,14.20
2013,09,11,00,21,14.20
2013,09,11,00,22,14.20
2013,09,11,00,23,14.20
2013,09,11,00,24,14.20
2013,09,11,00,25,14.20
2013,09,11,00,26,14.20
2013,09,11,00,27,14.20
2013,09,11,00,28,14.20
2013,09,11,00,29,14.20
2013,09,11,00,30,14.20
2013,09,11,00,31,14.20
2013,09,11,00,32,14.20
2013,09,11,00,33,14.20
2013,09,11,00,34,14.10
2013,09,11,00,35,14.10
2013,09,11,00,36,14.10
2013,09,11,00,37,14.00
2013,09,11,00,38,14.00
2013,09,11,00,39,13.90
2013,09,11,00,40,13.90
2013,09,11,00,41,13.90
2013,09,11,00,42,13.80
2013,09,11,00,43,13.80
2013,09,11,00,44,13.80
2013,09,11,00,45,13.80
2013,09,11,00,46,13.70
2013,09,11,00,47,13.70
2013,09,11,00,48,13.70
2013,09,11,00,49,13.70
2013,09,11,00,50,13.70
2013,09,11,00,51,13.70
2013,09,11,00,52,13.70
2013,09,11,00,53,13.60
2013,09,11,00,54,13.60
2013,09,11,00,55,13.60
2013,09,11,00,56,13.60
2013,09,11,00,57,13.60
2013,09,11,00,58,13.60
2013,09,11,00,59,13.50
2013,09,11,01,00,13.50
2013,09,11,01,01,13.50
2013,09,11,01,02,13.50
2013,09,11,01,03,13.40
2013,09,11,01,04,13.40
2013,09,11,01,05,13.40
2013,09,11,01,06,13.40
2013,09,11,01,07,13.30
2013,09,11,01,08,13.30
2013,09,11,01,09,13.30
2013,09,11,01,10,13.30
2013,09,11,01,11,13.30
2013,09,11,01,12,13.30
2013,09,11,01,13,13.30
2013,09,11,01,14,13.30
2013,09,11,01,15,13.20
2013,09,11,01,16,13.20
2013,09,11,01,17,13.20
2013,09,11,01,18,13.20
2013,09,11,01,19,13.20
2013,09,11,01,20,13.20
2013,09,11,01,21,13.20
2013,09,11,01,22,13.20
2013,09,11,01,23,13.20
2013,09,11,01,24,13.20
2013,09,11,01,25,13.20
2013,09,11,01,26,13.20
2013,09,11,01,27,13.30
2013,09,11,01,28,13.30
2013,09,11,01,29,13.30
2013,09,11,01,30,13.30
2013,09,11,01,31,13.30
2013,09,11,01,32,13.30
2013,09,11,01,33,13.30
2013,09,11,01,34,13.20
2013,09,11,01,35,13.20
2013,09,11,01,36,13.20
2013,09,11,01,37,13.20
2013,09,11,01,38,13.20
2013,09,11,01,39,13.20
2013,09,11,01,40,13.20
2013,09,11,01,41,13.20
2013,09,11,01,42,13.20
2013,09,11,01,43,13.20
2013,09,11,01,44,13.10
2013,09,11,01,45,13.10
2013,09,11,01,46,13.10
2013,09,11,01,47,13.00
2013,09,11,01,48,13.00
2013,09,11,01,49,13.00
2013,09,11,01,50,13.00
2013,09,11,01,51,12.90
2013,09,11,01,52,12.90
2013,09,11,01,53,12.90
2013,09,11,01,54,12.90
2013,09,11,01,55,12.90
2013,09,11,01,56,12.90
2013,09,11,01,57,12.90
2013,09,11,01,58,12.90
2013,09,11,01,59,12.90
2013,09,11,02,00,12.90
2013,09,11,02,01,12.90
2013,09,11,02,02,12.90
2013,09,11,02,03,12.90
2013,09,11,02,04,12.90
2013,09,11,02,05,12.90
2013,09,11,02,06,12.90
2013,09,11,02,07,12.90
2013,09,11,02,08,12.90
2013,09,11,02,09,12.80
2013,09,11,02,10,12.80
2013,09,11,02,11,12.80
2013,09,11,02,12,12.80
2013,09,11,02,13,12.80
2013,09,11,02,14,12.80
2013,09,11,02,15,12.80
2013,09,11,02,16,12.80
2013,09,11,02,17,12.80
2013,09,11,02,18,12.80
2013,09,11,02,19,12.80
2013,09,11,02,20,12.80
2013,09,11,02,21,12.80
2013,09,11,02,22,12.80
2013,09,11,02,23,12.80
2013,09,11,02,24,12.80
2013,09,11,02,25,12.80
2013,09,11,02,26,12.80
2013,09,11,02,27,12.80
2013,09,11,02,28,12.80
2013,09,11,02,29,12.80
2013,09,11,02,30,12.80
2013,09,11,02,31,12.70
2013,09,11,02,32,12.70
2013,09,11,02,33,12.70
2013,09,11,02,34,12.70
2013,09,11,02,35,12.70
2013,09,11,02,36,12.60
2013,09,11,02,37,12.60
2013,09,11,02,38,12.60
2013,09,11,02,39,12.60
2013,09,11,02,40,12.60
2013,09,11,02,41,12.60
2013,09,11,02,42,12.60
2013,09,11,02,43,12.60
2013,09,11,02,44,12.60
2013,09,11,02,45,12.60
2013,09,11,02,46,12.60
2013,09,11,02,47,12.60
2013,09,11,02,48,12.60
2013,09,11,02,49,12.60
2013,09,11,02,50,12.60
2013,09,11,02,51,12.60
2013,09,11,02,52,12.60
2013,09,11,02,53,12.60
2013,09,11,02,54,12.60
2013,09,11,02,55,12.70
2013,09,11,02,56,12.70
2013,09,11,02,57,12.70
2013,09,11,02,58,12.70
2013,09,11,02,59,12.70
2013,09,11,03,00,12.60
2013,09,11,03,01,12.60
2013,09,11,03,02,12.60
2013,09,11,03,03,12.60
2013,09,11,03,04,12.60
2013,09,11,03,05,12.50
2013,09,11,03,06,12.50
2013,09,11,03,07,12.50
2013,09,11,03,08,12.50
2013,09,11,03,09,12.50
2013,09,11,03,10,12.50
2013,09,11,03,11,12.40
2013,09,11,03,12,12.40
2013,09,11,03,13,12.40
2013,09,11,03,14,12.40
2013,09,11,03,15,12.40
2013,09,11,03,16,12.40
2013,09,11,03,17,12.40
2013,09,11,03,18,12.40
2013,09,11,03,19,12.40
2013,09,11,03,20,12.40
2013,09,11,03,21,12.40
2013,09,11,03,22,12.40
2013,09,11,03,23,12.40
2013,09,11,03,24,12.40
2013,09,11,03,25,12.40
2013,09,11,03,26,12.40
2013,09,11,03,27,12.40
2013,09,11,03,28,12.40
2013,09,11,03,29,12.40
2013,09,11,03,30,12.50
2013,09,11,03,31,12.50
2013,09,11,03,32,12.50
2013,09,11,03,33,12.50
2013,09,11,03,34,12.50
2013,09,11,03,35,12.50
2013,09,11,03,36,12.50
2013,09,11,03,37,12.50
2013,09,11,03,38,12.50
2013,09,11,03,39,12.40
2013,09,11,03,40,12.40
2013,09,11,03,41,12.40
2013,09,11,03,42,12.40
2013,09,11,03,43,12.30
2013,09,11,03,44,12.30
2013,09,11,03,45,12.30
2013,09,11,03,46,12.30
2013,09,11,03,47,12.30
2013,09,11,03,48,12.30
2013,09,11,03,49,12.30
2013,09,11,03,50,12.30
2013,09,11,03,51,12.20
2013,09,11,03,52,12.20
2013,09,11,03,53,12.20
2013,09,11,03,54,12.20
2013,09,11,03,55,12.20
2013,09,11,03,56,12.20
2013,09,11,03,57,12.20
2013,09,11,03,58,12.20
2013,09,11,03,59,12.20
2013,09,11,04,00,12.20
2013,09,11,04,01,12.10
2013,09,11,04,02,12.10
2013,09,11,04,03,12.10
2013,09,11,04,04,12.10
2013,09,11,04,05,12.10
2013,09,11,04,06,12.10
2013,09,11,04,07,12.10
2013,09,11,04,08,12.10
2013,09,11,04,09,12.10
2013,09,11,04,10,12.10
2013,09,11,04,11,12.10
2013,09,11,04,12,12.10
2013,09,11,04,13,12.00
2013,09,11,04,14,12.00
2013,09,11,04,15,12.00
2013,09,11,04,16,12.10
2013,09,11,04,17,12.00
2013,09,11,04,18,12.00
2013,09,11,04,19,12.00
2013,09,11,04,20,12.00
2013,09,11,04,21,11.90
2013,09,11,04,22,11.90
2013,09,11,04,23,11.90
2013,09,11,04,24,11.90
2013,09,11,04,25,11.90
2013,09,11,04,26,11.90
2013,09,11,04,27,11.90
2013,09,11,04,28,11.90
2013,09,11,04,29,11.90
2013,09,11,04,30,11.90
2013,09,11,04,31,11.90
2013,09,11,04,32,11.90
2013,09,11,04,33,11.90
2013,09,11,04,34,11.90
2013,09,11,04,35,11.90
2013,09,11,04,36,11.90
2013,09,11,04,37,11.90
2013,09,11,04,38,11.80
2013,09,11,04,39,11.80
2013,09,11,04,40,11.80
2013,09,11,04,41,11.80
2013,09,11,04,42,11.80
2013,09,11,04,43,11.80
2013,09,11,04,44,11.90
2013,09,11,04,45,11.90
2013,09,11,04,46,11.90
2013,09,11,04,47,11.90
2013,09,11,04,48,11.90
2013,09,11,04,49,11.90
2013,09,11,04,50,11.90
2013,09,11,04,51,11.90
2013,09,11,04,52,11.90
2013,09,11,04,53,11.90
2013,09,11,04,54,11.90
2013,09,11,04,55,11.90
2013,09,11,04,56,11.90
2013,09,11,04,57,11.90
2013,09,11,04,58,11.90
2013,09,11,04,59,11.90
2013,09,11,05,00,11.90
2013,09,11,05,01,11.90
2013,09,11,05,02,11.90
2013,09,11,05,03,11.90
2013,09,11,05,04,11.90
2013,09,11,05,05,11.90
2013,09,11,05,06,11.90
2013,09,11,05,07,11.90
2013,09,11,05,08,11.90
2013,09,11,05,09,11.90
2013,09,11,05,10,11.90
2013,09,11,05,11,12.00
2013,09,11,05,12,12.00
2013,09,11,05,13,12.00
2013,09,11,05,14,12.10
2013,09,11,05,15,12.10
2013,09,11,05,16,12.10
2013,09,11,05,17,12.10
2013,09,11,05,18,12.20
2013,09,11,05,19,12.20
2013,09,11,05,20,12.20
2013,09,11,05,21,12.20
2013,09,11,05,22,12.10
2013,09,11,05,23,12.10
2013,09,11,05,24,12.10
2013,09,11,05,25,12.00
2013,09,11,05,26,12.00
2013,09,11,05,27,12.00
2013,09,11,05,28,11.90
2013,09,11,05,29,11.90
2013,09,11,05,30,11.90
2013,09,11,05,31,11.90
2013,09,11,05,32,11.90
2013,09,11,05,33,11.90
2013,09,11,05,34,11.80
2013,09,11,05,35,11.80
2013,09,11,05,36,11.80
2013,09,11,05,37,11.80
2013,09,11,05,38,11.80
2013,09,11,05,39,11.80
2013,09,11,05,40,11.80
2013,09,11,05,41,11.80
2013,09,11,05,42,11.70
2013,09,11,05,43,11.70
2013,09,11,05,44,11.70
2013,09,11,05,45,11.70
2013,09,11,05,46,11.70
2013,09,11,05,47,11.70
2013,09,11,05,48,11.70
2013,09,11,05,49,11.70
2013,09,11,05,50,11.70
2013,09,11,05,51,11.70
2013,09,11,05,52,11.70
2013,09,11,05,53,11.70
2013,09,11,05,54,11.70
2013,09,11,05,55,11.70
2013,09,11,05,56,11.70
2013,09,11,05,57,11.70
2013,09,11,05,58,11.70
2013,09,11,05,59,11.60
2013,09,11,06,00,11.60
2013,09,11,06,01,11.60
2013,09,11,06,02,11.60
2013,09,11,06,03,11.60
2013,09,11,06,04,11.60
2013,09,11,06,05,11.60
2013,09,11,06,06,11.60
2013,09,11,06,07,11.60
2013,09,11,06,08,11.60
2013,09,11,06,09,11.60
2013,09,11,06,10,11.60
2013,09,11,06,11,11.60
2013,09,11,06,12,11.60
2013,09,11,06,13,11.60
2013,09,11,06,14,11.60
2013,09,11,06,15,11.60
2013,09,11,06,16,11.60
2013,09,11,06,17,11.60
2013,09,11,06,18,11.60
2013,09,11,06,19,11.60
2013,09,11,06,20,11.60
2013,09,11,06,21,11.70
2013,09,11,06,22,11.70
2013,09,11,06,23,11.70
2013,09,11,06,24,11.70
2013,09,11,06,25,11.70
2013,09,11,06,26,11.70
2013,09,11,06,27,11.70
2013,09,11,06,28,11.70
2013,09,11,06,29,11.70
2013,09,11,06,30,11.70
2013,09,11,06,31,11.70
2013,09,11,06,32,11.70
2013,09,11,06,33,11.70
2013,09,11,06,34,11.70
2013,09,11,06,35,11.70
2013,09,11,06,36,11.60
2013,09,11,06,37,11.60
2013,09,11,06,38,11.60
2013,09,11,06,39,11.60
2013,09,11,06,40,11.60
2013,09,11,06,41,11.60
2013,09,11,06,42,11.60
2013,09,11,06,43,11.60
2013,09,11,06,44,11.60
2013,09,11,06,45,11.60
2013,09,11,06,46,11.60
2013,09,11,06,47,11.60
2013,09,11,06,48,11.60
2013,09,11,06,49,11.60
2013,09,11,06,50,11.60
2013,09,11,06,51,11.60
2013,09,11,06,52,11.60
2013,09,11,06,53,11.60
2013,09,11,06,54,11.60
2013,09,11,06,55,11.60
2013,09,11,06,56,11.60
2013,09,11,06,57,11.50
2013,09,11,06,58,11.50
2013,09,11,06,59,11.50
2013,09,11,07,00,11.50
2013,09,11,07,01,11.50
2013,09,11,07,02,11.50
2013,09,11,07,03,11.50
2013,09,11,07,04,11.50
2013,09,11,07,05,11.50
2013,09,11,07,06,11.50
2013,09,11,07,07,11.50
2013,09,11,07,08,11.40
2013,09,11,07,09,11.40
2013,09,11,07,10,11.40
2013,09,11,07,11,11.40
2013,09,11,07,12,11.40
2013,09,11,07,13,11.40
2013,09,11,07,14,11.40
2013,09,11,07,15,11.40
2013,09,11,07,16,11.40
2013,09,11,07,17,11.40
2013,09,11,07,18,11.40
2013,09,11,07,19,11.40
2013,09,11,07,20,11.40
2013,09,11,07,21,11.40
2013,09,11,07,22,11.40
2013,09,11,07,23,11.40
2013,09,11,07,24,11.40
2013,09,11,07,25,11.40
2013,09,11,07,26,11.40
2013,09,11,07,27,11.40
2013,09,11,07,28,11.40
2013,09,11,07,29,11.30
2013,09,11,07,30,11.30
2013,09,11,07,31,11.30
2013,09,11,07,32,11.30
2013,09,11,07,33,11.30
2013,09,11,07,34,11.30
2013,09,11,07,35,11.40
2013,09,11,07,36,11.40
2013,09,11,07,37,11.40
2013,09,11,07,38,11.40
2013,09,11,07,39,11.40
2013,09,11,07,40,11.40
2013,09,11,07,41,11.40
2013,09,11,07,42,11.40
2013,09,11,07,43,11.40
2013,09,11,07,44,11.40
2013,09,11,07,45,11.40
2013,09,11,07,46,11.40
2013,09,11,07,47,11.40
2013,09,11,07,48,11.40
2013,09,11,07,49,11.40
2013,09,11,07,50,11.40
2013,09,11,07,51,11.40
2013,09,11,07,52,11.40
2013,09,11,07,53,11.40
2013,09,11,07,54,11.40
2013,09,11,07,55,11.40
2013,09,11,07,56,11.40
2013,09,11,07,57,11.40
2013,09,11,07,58,11.40
2013,09,11,07,59,11.40
2013,09,11,08,00,11.40
2013,09,11,08,01,11.40
2013,09,11,08,02,11.40
2013,09,11,08,03,11.40
2013,09,11,08,04,11.40
2013,09,11,08,05,11.40
2013,09,11,08,06,11.50
2013,09,11,08,07,11.50
2013,09,11,08,08,11.50
2013,09,11,08,09,11.50
2013,09,11,08,10,11.50
2013,09,11,08,11,11.50
2013,09,11,08,12,11.50
2013,09,11,08,13,11.50
2013,09,11,08,14,11.50
2013,09,11,08,15,11.60
2013,09,11,08,16,11.60
2013,09,11,08,17,11.60
2013,09,11,08,18,11.60
2013,09,11,08,19,11.60
2013,09,11,08,20,11.60
2013,09,11,08,21,11.60
2013,09,11,08,22,11.70
2013,09,11,08,23,11.70
2013,09,11,08,24,11.70
2013,09,11,08,25,11.70
2013,09,11,08,26,11.70
2013,09,11,08,27,11.70
2013,09,11,08,28,11.70
2013,09,11,08,29,11.70
2013,09,11,08,30,11.70
2013,09,11,08,31,11.70
2013,09,11,08,32,11.70
2013,09,11,08,33,11.70
2013,09,11,08,34,11.70
2013,09,11,08,35,11.70
2013,09,11,08,36,11.70
2013,09,11,08,37,11.70
2013,09,11,08,38,11.70
2013,09,11,08,39,11.70
2013,09,11,08,40,11.70
2013,09,11,08,41,11.70
2013,09,11,08,42,11.70
2013,09,11,08,43,11.80
2013,09,11,08,44,11.80
2013,09,11,08,45,11.80
2013,09,11,08,46,11.80
2013,09,11,08,47,11.90
2013,09,11,08,48,11.90
2013,09,11,08,49,11.90
2013,09,11,08,50,11.90
2013,09,11,08,51,11.90
2013,09,11,08,52,12.00
2013,09,11,08,53,12.00
2013,09,11,08,54,12.00
2013,09,11,08,55,12.00
2013,09,11,08,56,12.00
2013,09,11,08,57,12.00
2013,09,11,08,58,12.10
2013,09,11,08,59,12.10
2013,09,11,09,00,12.10
2013,09,11,09,01,12.10
2013,09,11,09,02,12.10
2013,09,11,09,03,12.10
2013,09,11,09,04,12.20
2013,09,11,09,05,12.20
2013,09,11,09,06,12.20
2013,09,11,09,07,12.30
2013,09,11,09,08,12.30
2013,09,11,09,09,12.30
2013,09,11,09,10,12.30
2013,09,11,09,11,12.30
2013,09,11,09,12,12.30
2013,09,11,09,13,12.30
2013,09,11,09,14,12.30
2013,09,11,09,15,12.30
2013,09,11,09,16,12.30
2013,09,11,09,17,12.30
2013,09,11,09,18,12.30
2013,09,11,09,19,12.30
2013,09,11,09,20,12.30
2013,09,11,09,21,12.40
2013,09,11,09,22,12.40
2013,09,11,09,23,12.40
2013,09,11,09,24,12.40
2013,09,11,09,25,12.40
2013,09,11,09,26,12.40
2013,09,11,09,27,12.50
2013,09,11,09,28,12.50
2013,09,11,09,29,12.50
2013,09,11,09,30,12.60
2013,09,11,09,31,12.60
2013,09,11,09,32,12.60
2013,09,11,09,33,12.60
2013,09,11,09,34,12.60
2013,09,11,09,35,12.60
2013,09,11,09,36,12.60
2013,09,11,09,37,12.70
2013,09,11,09,38,12.70
2013,09,11,09,39,12.70
2013,09,11,09,40,12.70
2013,09,11,09,41,12.80
2013,09,11,09,42,12.80
2013,09,11,09,43,12.80
2013,09,11,09,44,12.80
2013,09,11,09,45,12.80
2013,09,11,09,46,12.80
2013,09,11,09,47,12.80
2013,09,11,09,48,12.90
2013,09,11,09,49,12.90
2013,09,11,09,50,12.90
2013,09,11,09,51,13.00
2013,09,11,09,52,13.00
2013,09,11,09,53,13.10
2013,09,11,09,54,13.10
2013,09,11,09,55,13.10
2013,09,11,09,56,13.20
2013,09,11,09,57,13.20
2013,09,11,09,58,13.30
2013,09,11,09,59,13.30
2013,09,11,10,00,13.40
2013,09,11,10,01,13.40
2013,09,11,10,02,13.50
2013,09,11,10,03,13.50
2013,09,11,10,04,13.60
2013,09,11,10,05,13.60
2013,09,11,10,06,13.70
2013,09,11,10,07,13.70
2013,09,11,10,08,13.80
2013,09,11,10,09,13.80
2013,09,11,10,10,13.90
2013,09,11,10,11,13.90
2013,09,11,10,12,13.90
2013,09,11,10,13,14.00
2013,09,11,10,14,14.10
2013,09,11,10,15,14.10
2013,09,11,10,16,14.20
2013,09,11,10,17,14.30
2013,09,11,10,18,14.40
2013,09,11,10,19,14.50
2013,09,11,10,20,14.60
2013,09,11,10,21,14.70
2013,09,11,10,22,14.90
2013,09,11,10,23,15.00
2013,09,11,10,24,15.20
2013,09,11,10,25,15.30
2013,09,11,10,26,15.40
2013,09,11,10,27,15.50
2013,09,11,10,28,15.60
2013,09,11,10,29,15.80
2013,09,11,10,30,15.90
2013,09,11,10,31,16.00
2013,09,11,10,32,16.20
2013,09,11,10,33,16.30
2013,09,11,10,34,16.40
2013,09,11,10,35,16.60
2013,09,11,10,36,16.70
2013,09,11,10,37,16.90
2013,09,11,10,38,17.00
2013,09,11,10,39,17.20
2013,09,11,10,40,17.30
2013,09,11,10,41,17.40
2013,09,11,10,42,17.50
2013,09,11,10,43,17.70
2013,09,11,10,44,17.80
2013,09,11,10,45,17.90
2013,09,11,10,46,18.10
2013,09,11,10,47,18.20
2013,09,11,10,48,18.40
2013,09,11,10,49,18.50
2013,09,11,10,50,18.60
2013,09,11,10,51,18.80
2013,09,11,10,52,18.90
2013,09,11,10,53,19.00
2013,09,11,10,54,19.10
2013,09,11,10,55,19.20
2013,09,11,10,56,19.30
2013,09,11,10,57,19.40
2013,09,11,10,58,19.50
2013,09,11,10,59,19.60
2013,09,11,11,00,19.70
2013,09,11,11,01,19.80
2013,09,11,11,02,19.90
2013,09,11,11,03,20.00
2013,09,11,11,04,20.20
2013,09,11,11,05,20.30
2013,09,11,11,06,20.40
2013,09,11,11,07,20.50
2013,09,11,11,08,20.60
2013,09,11,11,09,20.80
2013,09,11,11,10,20.90
2013,09,11,11,11,21.00
2013,09,11,11,12,21.10
2013,09,11,11,13,21.20
2013,09,11,11,14,21.30
2013,09,11,11,15,21.30
2013,09,11,11,16,21.40
2013,09,11,11,17,21.40
2013,09,11,11,18,21.50
2013,09,11,11,19,21.50
2013,09,11,11,20,21.60
2013,09,11,11,21,21.60
2013,09,11,11,22,21.70
2013,09,11,11,23,21.80
2013,09,11,11,24,21.90
2013,09,11,11,25,22.00
2013,09,11,11,26,22.10
2013,09,11,11,27,22.20
2013,09,11,11,28,22.30
2013,09,11,11,29,22.40
2013,09,11,11,30,22.50
2013,09,11,11,31,22.60
2013,09,11,11,32,22.70
2013,09,11,11,33,22.80
2013,09,11,11,34,22.80
2013,09,11,11,35,22.80
2013,09,11,11,36,22.80
2013,09,11,11,37,22.90
2013,09,11,11,38,22.90
2013,09,11,11,39,22.90
2013,09,11,11,40,23.00
2013,09,11,11,41,23.00
2013,09,11,11,42,23.10
2013,09,11,11,43,23.10
2013,09,11,11,44,23.10
2013,09,11,11,45,23.20
2013,09,11,11,46,23.20
2013,09,11,11,47,23.20
2013,09,11,11,48,23.30
2013,09,11,11,49,23.40
2013,09,11,11,50,23.50
2013,09,11,11,51,23.60
2013,09,11,11,52,23.60
2013,09,11,11,53,23.70
2013,09,11,11,54,23.80
2013,09,11,11,55,23.80
2013,09,11,11,56,23.90
2013,09,11,11,57,24.00
2013,09,11,11,58,24.10
2013,09,11,11,59,24.10
2013,09,11,12,00,24.20
2013,09,11,12,01,24.30
2013,09,11,12,02,24.30
2013,09,11,12,03,24.30
2013,09,11,12,04,24.30
2013,09,11,12,05,24.30
2013,09,11,12,06,24.30
2013,09,11,12,07,24.30
2013,09,11,12,08,24.30
2013,09,11,12,09,24.30
2013,09,11,12,10,24.30
2013,09,11,12,11,24.40
2013,09,11,12,12,24.50
2013,09,11,12,13,24.50
2013,09,11,12,14,24.60
2013,09,11,12,15,24.70
2013,09,11,12,16,24.70
2013,09,11,12,17,24.80
2013,09,11,12,18,24.80
2013,09,11,12,19,24.90
2013,09,11,12,20,25.00
2013,09,11,12,21,25.10
2013,09,11,12,22,25.20
2013,09,11,12,23,25.30
2013,09,11,12,24,25.40
2013,09,11,12,25,25.50
2013,09,11,12,26,25.60
2013,09,11,12,27,25.60
2013,09,11,12,28,25.70
2013,09,11,12,29,25.80
2013,09,11,12,30,25.80
2013,09,11,12,31,25.90
2013,09,11,12,32,26.00
2013,09,11,12,33,26.10
2013,09,11,12,34,26.20
2013,09,11,12,35,26.30
2013,09,11,12,36,26.30
2013,09,11,12,37,26.40
2013,09,11,12,38,26.50
2013,09,11,12,39,26.50
2013,09,11,12,40,26.60
2013,09,11,12,41,26.60
2013,09,11,12,42,26.70
2013,09,11,12,43,26.70
2013,09,11,12,44,26.80
2013,09,11,12,45,26.90
2013,09,11,12,46,26.90
2013,09,11,12,47,26.90
2013,09,11,12,48,26.80
2013,09,11,12,49,26.80
2013,09,11,12,50,26.80
2013,09,11,12,51,26.80
2013,09,11,12,52,26.90
2013,09,11,12,53,26.90
2013,09,11,12,54,27.00
2013,09,11,12,55,27.00
2013,09,11,12,56,27.00
2013,09,11,12,57,27.10
2013,09,11,12,58,27.10
2013,09,11,12,59,27.20
2013,09,11,13,00,27.30
2013,09,11,13,01,27.30
2013,09,11,13,02,27.30
2013,09,11,13,03,27.30
2013,09,11,13,04,27.30
2013,09,11,13,05,27.10
2013,09,11,13,06,27.00
2013,09,11,13,07,26.90
2013,09,11,13,08,26.90
2013,09,11,13,09,26.80
2013,09,11,13,10,26.80
2013,09,11,13,11,26.90
2013,09,11,13,12,26.90
2013,09,11,13,13,26.90
2013,09,11,13,14,26.90
2013,09,11,13,15,26.90
2013,09,11,13,16,26.90
2013,09,11,13,17,26.90
2013,09,11,13,18,27.00
2013,09,11,13,19,27.00
2013,09,11,13,20,27.10
2013,09,11,13,21,27.20
2013,09,11,13,22,27.20
2013,09,11,13,23,27.30
2013,09,11,13,24,27.40
2013,09,11,13,25,27.50
2013,09,11,13,26,27.70
2013,09,11,13,27,27.80
2013,09,11,13,28,28.00
2013,09,11,13,29,28.00
2013,09,11,13,30,28.10
2013,09,11,13,31,28.10
2013,09,11,13,32,28.10
2013,09,11,13,33,28.10
2013,09,11,13,34,28.10
2013,09,11,13,35,28.10
2013,09,11,13,36,28.10
2013,09,11,13,37,28.10
2013,09,11,13,38,28.10
2013,09,11,13,39,28.20
2013,09,11,13,40,28.20
2013,09,11,13,41,28.10
2013,09,11,13,42,28.10
2013,09,11,13,43,28.00
2013,09,11,13,44,28.00
2013,09,11,13,45,28.00
2013,09,11,13,46,28.00
2013,09,11,13,47,28.00
2013,09,11,13,48,28.10
2013,09,11,13,49,28.10
2013,09,11,13,50,28.10
2013,09,11,13,51,28.10
2013,09,11,13,52,28.10
2013,09,11,13,53,28.10
2013,09,11,13,54,28.30
2013,09,11,13,55,28.40
2013,09,11,13,56,28.50
2013,09,11,13,57,28.70
2013,09,11,13,58,28.80
2013,09,11,13,59,28.90
2013,09,11,14,00,29.00
2013,09,11,14,01,29.00
2013,09,11,14,02,29.00
2013,09,11,14,03,29.00
2013,09,11,14,04,28.90
2013,09,11,14,05,29.00
2013,09,11,14,06,29.00
2013,09,11,14,07,29.00
2013,09,11,14,08,29.10
2013,09,11,14,09,29.10
2013,09,11,14,10,29.20
2013,09,11,14,11,29.20
2013,09,11,14,12,29.30
2013,09,11,14,13,29.30
2013,09,11,14,14,29.40
2013,09,11,14,15,29.40
2013,09,11,14,16,29.40
2013,09,11,14,17,29.50
2013,09,11,14,18,29.50
2013,09,11,14,19,29.60
2013,09,11,14,20,29.60
2013,09,11,14,21,29.70
2013,09,11,14,22,29.70
2013,09,11,14,23,29.70
2013,09,11,14,24,29.70
2013,09,11,14,25,29.70
2013,09,11,14,26,29.70
2013,09,11,14,27,29.70
2013,09,11,14,28,29.70
2013,09,11,14,29,29.70
2013,09,11,14,30,29.80
2013,09,11,14,31,29.80
2013,09,11,14,32,29.80
2013,09,11,14,33,29.90
2013,09,11,14,34,29.90
2013,09,11,14,35,30.00
2013,09,11,14,36,30.00
2013,09,11,14,37,30.00
2013,09,11,14,38,30.00
2013,09,11,14,39,30.00
2013,09,11,14,40,30.00
2013,09,11,14,41,29.90
2013,09,11,14,42,29.90
2013,09,11,14,43,29.90
2013,09,11,14,44,29.90
2013,09,11,14,45,29.90
2013,09,11,14,46,29.90
2013,09,11,14,47,29.90
2013,09,11,14,48,29.90
2013,09,11,14,49,29.90
2013,09,11,14,50,30.00
2013,09,11,14,51,30.00
2013,09,11,14,52,30.10
2013,09,11,14,53,30.10
2013,09,11,14,54,30.10
2013,09,11,14,55,30.20
2013,09,11,14,56,30.20
2013,09,11,14,57,30.20
2013,09,11,14,58,30.10
2013,09,11,14,59,30.10
2013,09,11,15,00,30.10
2013,09,11,15,01,30.10
2013,09,11,15,02,30.10
2013,09,11,15,03,30.00
2013,09,11,15,04,30.00
2013,09,11,15,05,29.90
2013,09,11,15,06,29.90
2013,09,11,15,07,29.90
2013,09,11,15,08,29.80
2013,09,11,15,09,29.80
2013,09,11,15,10,29.80
2013,09,11,15,11,29.80
2013,09,11,15,12,29.80
2013,09,11,15,13,29.70
2013,09,11,15,14,29.60
2013,09,11,15,15,29.50
2013,09,11,15,16,29.50
2013,09,11,15,17,29.40
2013,09,11,15,18,29.30
2013,09,11,15,19,29.30
2013,09,11,15,20,29.30
2013,09,11,15,21,29.20
2013,09,11,15,22,29.20
2013,09,11,15,23,29.10
2013,09,11,15,24,29.00
2013,09,11,15,25,28.90
2013,09,11,15,26,28.90
2013,09,11,15,27,28.90
2013,09,11,15,28,28.90
2013,09,11,15,29,28.90
2013,09,11,15,30,28.90
2013,09,11,15,31,28.90
2013,09,11,15,32,28.90
2013,09,11,15,33,28.90
2013,09,11,15,34,28.90
2013,09,11,15,35,28.90
2013,09,11,15,36,28.90
2013,09,11,15,37,28.90
2013,09,11,15,38,28.80
2013,09,11,15,39,28.80
2013,09,11,15,40,28.80
2013,09,11,15,41,28.70
2013,09,11,15,42,28.60
2013,09,11,15,43,28.50
2013,09,11,15,44,28.40
2013,09,11,15,45,28.40
2013,09,11,15,46,28.40
2013,09,11,15,47,28.40
2013,09,11,15,48,28.40
2013,09,11,15,49,28.30
2013,09,11,15,50,28.20
2013,09,11,15,51,28.20
2013,09,11,15,52,28.10
2013,09,11,15,53,28.00
2013,09,11,15,54,28.00
2013,09,11,15,55,27.80
2013,09,11,15,56,27.80
2013,09,11,15,57,27.70
2013,09,11,15,58,27.50
2013,09,11,15,59,27.40
2013,09,11,16,00,27.30
2013,09,11,16,01,27.20
2013,09,11,16,02,27.10
2013,09,11,16,03,27.00
2013,09,11,16,04,26.90
2013,09,11,16,05,26.80
2013,09,11,16,06,26.80
2013,09,11,16,07,26.80
2013,09,11,16,08,26.80
2013,09,11,16,09,26.80
2013,09,11,16,10,26.80
2013,09,11,16,11,26.80
2013,09,11,16,12,26.90
2013,09,11,16,13,26.90
2013,09,11,16,14,26.90
2013,09,11,16,15,26.90
2013,09,11,16,16,27.00
2013,09,11,16,17,27.10
2013,09,11,16,18,27.10
2013,09,11,16,19,27.20
2013,09,11,16,20,27.20
2013,09,11,16,21,27.30
2013,09,11,16,22,27.40
2013,09,11,16,23,27.40
2013,09,11,16,24,27.40
2013,09,11,16,25,27.40
2013,09,11,16,26,27.40
2013,09,11,16,27,27.40
2013,09,11,16,28,27.50
2013,09,11,16,29,27.50
2013,09,11,16,30,27.50
2013,09,11,16,31,27.40
2013,09,11,16,32,27.40
2013,09,11,16,33,27.40
2013,09,11,16,34,27.30
2013,09,11,16,35,27.30
2013,09,11,16,36,27.20
2013,09,11,16,37,27.20
2013,09,11,16,38,27.10
2013,09,11,16,39,27.10
2013,09,11,16,40,27.10
2013,09,11,16,41,27.00
2013,09,11,16,42,27.00
2013,09,11,16,43,27.00
2013,09,11,16,44,26.90
2013,09,11,16,45,26.90
2013,09,11,16,46,26.80
2013,09,11,16,47,26.80
2013,09,11,16,48,26.70
2013,09,11,16,49,26.70
2013,09,11,16,50,26.70
2013,09,11,16,51,26.60
2013,09,11,16,52,26.60
2013,09,11,16,53,26.60
2013,09,11,16,54,26.60
2013,09,11,16,55,26.60
2013,09,11,16,56,26.60
2013,09,11,16,57,26.60
2013,09,11,16,58,26.50
2013,09,11,16,59,26.50
2013,09,11,17,00,26.40
2013,09,11,17,01,26.40
2013,09,11,17,02,26.40
2013,09,11,17,03,26.40
2013,09,11,17,04,26.40
2013,09,11,17,05,26.40
2013,09,11,17,06,26.50
2013,09,11,17,07,26.50
2013,09,11,17,08,26.60
2013,09,11,17,09,26.50
2013,09,11,17,10,26.50
2013,09,11,17,11,26.40
2013,09,11,17,12,26.30
2013,09,11,17,13,26.30
2013,09,11,17,14,26.20
2013,09,11,17,15,26.20
2013,09,11,17,16,26.20
2013,09,11,17,17,26.20
2013,09,11,17,18,26.20
2013,09,11,17,19,26.30